Regional Weather Roundup
Issued by NWS Charleston, SC

Current Version | Previous Version | Text Only | Print | Product List | Glossary On
Versions: 1 2 3 4 5 6 7 8 9 10 11 12 13 14 15 16 17 18 19 20 21 22 23 24 25 26 27 28 29 30 31 32 33 34 35 36 37 38 39 40 41 42 43 44 45 46 47 48 49 50
000
ASUS42 KCHS 281327
RWRCHS

REGIONAL WEATHER ROUNDUP
NATIONAL WEATHER SERVICE CHARLESTON SC
900 AM EDT SUN MAY 28 2017

NOTE: "FAIR" INDICATES FEW OR NO CLOUDS BELOW 12,000 FEET WITH NO
SIGNIFICANT WEATHER AND/OR OBSTRUCTIONS TO VISIBILITY.

NOT ALL STATIONS ARE QUALITY CONTROLLED. USE DATA WITH CAUTION...
ESPECIALLY DEWPOINT OBSERVATIONS.

SCZ027-030-031-034>040-042>050-281400-
...SOUTHEAST SOUTH CAROLINA...

CITY           SKY/WX    TMP DP  RH WIND       PRES   REMARKS
N CHARLESTON   MOSUNNY   80  66  62 W13       29.93R
WATERFRONT PRK   N/A     78  70  76 W5        29.90R
JOHNS ISLAND   FAIR      82  70  65 SW9       29.95R
PINOPOLIS        N/A     75  70  83 SW9       29.85R
MONCKS CORNER  FAIR      79  66  65 SW9       29.94R
SUMMERVILLE    FAIR      79  66  65 SW9G17    29.95R
BEAUFORT MCAS  MOSUNNY   80  69  69 SW13      29.96R
BEAUFORT ARPT  FAIR      79  68  69 W12       29.97R
HILTON HEAD IS SUNNY     79  68  69 W12       29.97R
WALTERBORO     CLOUDY    79  68  69 W10       29.96R
ALLENDALE      FAIR      79  68  69 VRB5G12   29.94S

...SOUTHERN MIDLANDS AND PEE DEE...

CITY           SKY/WX    TMP DP  RH WIND       PRES   REMARKS
GEORGETOWN     FAIR      79  68  69 W9        29.93R
KINGSTREE      FAIR      79  66  65 SW10G16   29.91R
ORANGEBURG     CLOUDY    78  68  71 W8        29.94R
BARNWELL       FAIR      81  72  74 W9        29.96R
AIKEN          FAIR      75  64  69 W10       29.99F
MANNING        FAIR      79  70  73 W10G24    29.93R
COLUMBIA       CLOUDY    82  67  60 W13       29.92R
SUMTER         PTSUNNY   79  68  67 W13       29.89R
FLORENCE       SUNNY     78  68  71 W10       29.89R
MYRTLE BEACH   SUNNY     79  68  69 W13       29.90R
N MYRTLE BEACH SUNNY     79  68  69 SW8       29.89R

$$

GAZ063-065-086>088-099>101-113>116-118-119-134>141-150-281400-
...SOUTHEAST GEORGIA...

CITY           SKY/WX    TMP DP  RH WIND       PRES   REMARKS
SAVANNAH ARPT  PTSUNNY   79  65  62 W10       29.98R
HUNTER AAF     SUNNY     78  71  78 W6        29.96R
FORT STEWART   MOSUNNY   79  67  67 W8        29.97R
STATESBORO     MOSUNNY   80  70  70 W7        29.97F
SYLVANIA       MOSUNNY   80  71  74 W7        29.98S
CLAXTON        FAIR      79  76  90 SW9       29.99R

...CSRA...CENTRAL AND FAR SOUTHEAST GEORGIA...

CITY           SKY/WX    TMP DP  RH WIND       PRES   REMARKS
THOMSON        CLOUDY    71  65  81 SW5       29.97F
AUGUSTA-BUSH   CLOUDY    80  69  69 NW10      29.95R
AUGUSTA-DANIEL CLOUDY    78  65  63 NW10G21   29.95R
SWAINSBORO     FAIR      77  72  83 NW7       29.99S
VIDALIA        CLOUDY    79  72  78 W6        30.00R
EASTMAN        FAIR      76  65  68 W5        30.02F
HAZLEHURST     FAIR      76  74  91 W6        30.01R
ALMA           SUNNY     78  71  79 W8        30.02R
WAYCROSS       CLOUDY    77  76  95 W9        30.04R
JESUP          FAIR      81  70  69 W8        30.01R
BAXLEY         FAIR      79  77  94 W8G17     30.01R
BRUNSWICK      MOSUNNY   79  72  78 W7        30.01R
SAINT SIMONS   SUNNY     78  71  79 W6        29.98R

$$

SCZ027-028-034-036>038-045-046-048>050-GAZ119-141-281400-
...LAKE AND SUPPLEMENTAL COASTAL OBSERVATIONS...

STATION/POSITION TIME  TEMP    WIND        PRES    WAVE   SWELL
                       AIR SEA DIR/SP/G            HT/PER HT/PER/DIR
                 (UTC) (F)     (DEG/KT/KT) (MB)    (FT/S) (FT/S/D)
WINYAH BAY       1245   78     260/  7     1012.0S
LAKE MURRAY      1250   77     270/ 15/ 19 1012.9R
ACE BASIN NERRS  1230   77     240/  2     1014.0R
FORT PULASKI     1300   78     290/ 10/ 12 1015.5
SAPELO ISLAND    1245   78     270/  8     1015.0R

$$

ANZ835-935-AMZ111-154-330-350-352-354-370-450-454-472-281400-
...C-MAN AND BUOY OBSERVATIONS...

STATION/POSITION TIME  TEMP    WIND        PRES    WAVE   SWELL
                       AIR SEA DIR/SP/G            HT/PER HT/PER/DIR
                 (UTC) (F)     (DEG/KT/KT) (MB)    (FT/S) (FT/S/D)
BUOY 41004       1310   76 75  230/ 12/ 14 1013.4
BUOY 41008       1250   76 78  250/ 14/ 16 1014.6R   2/ 4   2/ 70/ 7
FOLLY BEACH CMAN 1300   80     230/  9/ 13 1014.6R
CAPERS NEARSHORE 1308   81 77  250/ 14/ 17 1013.6R
FRIPP NEARSHORE  1308   77 77  270/ 12/ 14 1014.4R


STATION/POSITION TIME  TEMP    WIND        PRES    WAVE   SWELL
                       AIR SEA DIR/SP/G            HT/PER HT/PER/DIR
                 (UTC) (F)     (DEG/KT/KT) (MB)    (FT/S) (FT/S/D)
5E ST. MARYS GA  1300      78                N/A     2/ 8
FRYING PAN BUOY  1310   75 75  220/ 12/ 14 1012.3
BUOY 41025       1250   76 77  240/ 14/ 16 1011.2R   3/ 6   2/230/ 6
CAPE LOOKOUT NC  1300   77     240/  8/ 11 1011.5R
BUOY 41002       1250   76 77  230/ 14/ 17 1014.8R   3/ 5   2/120/ 8
BUOY 41010       1310   80 79  200/  6/  8 1016.0
ST AUGUSTINE FL  1300   73 76  270/ 12/ 14 1017.1R


$$



USA.gov is the U.S. government's official web portal to all federal, state and local government web resources and services.